LX1BS-13 Weather Reports


Display with metric or nautical units.
time (UTC)temp
F
wind
direction
speed
MPH
gust
MPH
rain 1hr
in
rain 24hr
in
rain mn
in
humidity
%
barometer
mb
20260506223057 47 251 2.0 7.0 0.00 0.03 0.00 86 1010.6
20260506221611 47 0 1.0 4.0 0.00 0.03 0.00 85 1010.6
20260506220056 48 282 0.0 4.0 0.00 0.03 0.00 86 1010.4
20260506214558 48 243 2.0 4.0 0.00 0.03 0.03 85 1010.3
20260506213115 48 269 1.0 5.0 0.00 0.03 0.03 85 1010.0
20260506211558 48 319 2.0 5.0 0.00 0.03 0.03 85 1009.8
20260506210058 48 319 1.0 5.0 0.00 0.03 0.03 84 1009.8
20260506204556 48 302 2.0 6.0 0.00 0.22 0.03 83 1009.7
20260506203059 48 304 2.0 5.0 0.00 0.22 0.03 83 1009.7
20260506201559 49 236 2.0 6.0 0.00 0.22 0.03 83 1009.5
20260506200058 49 248 1.0 4.0 0.00 0.22 0.03 85 1009.4
20260506194602 49 244 2.0 5.0 0.00 0.28 0.03 84 1009.2
20260506193058 49 303 2.0 7.0 0.00 0.28 0.03 83 1009.0
20260506191556 49 325 2.0 6.0 0.00 0.28 0.03 83 1008.8
20260506190106 49 276 4.0 9.0 0.00 0.28 0.03 83 1008.6
20260506184604 50 319 2.0 6.0 0.00 0.31 0.03 82 1008.5
20260506183104 50 307 1.0 3.0 0.00 0.31 0.03 83 1008.4
20260506181623 51 330 3.0 9.0 0.00 0.31 0.03 81 1008.2
20260506180101 51 233 3.0 10.0 0.00 0.31 0.03 82 1007.9
20260506174559 51 225 2.0 7.0 0.00 0.31 0.03 82 1007.9
20260506173113 51 325 3.0 11.0 0.00 0.31 0.03 82 1007.8
20260506171606 51 309 3.0 11.0 0.00 0.31 0.03 84 1007.7
20260506170105 51 221 2.0 9.0 0.00 0.31 0.03 84 1007.6
20260506164614 52 323 3.0 8.0 0.00 0.33 0.03 83 1007.7
20260506163105 52 252 2.0 10.0 0.00 0.33 0.03 83 1007.6
20260506161557 52 251 3.0 8.0 0.00 0.33 0.03 81 1007.5
20260506160105 53 275 3.0 8.0 0.00 0.33 0.03 81 1007.6
20260506154602 53 319 1.0 6.0 0.00 0.35 0.03 82 1007.5
20260506153112 53 300 1.0 7.0 0.00 0.35 0.03 82 1007.4
20260506151600 53 222 2.0 8.0 0.00 0.35 0.03 82 1007.3
20260506144559 52 323 2.0 9.0 0.00 0.37 0.03 87 1006.9
20260506143059 52 288 1.0 6.0 0.00 0.37 0.03 88 1007.0
20260506141559 52 0 0.0 9.0 0.00 0.37 0.03 91 1007.1
20260506134559 51 325 5.0 11.0 0.00 0.40 0.03 88 1007.1
20260506133056 52 279 2.0 8.0 0.00 0.40 0.03 89 1007.2
20260506131559 52 310 2.0 9.0 0.00 0.40 0.03 88 1007.0
20260506130058 52 306 4.0 10.0 0.00 0.40 0.03 87 1006.9
20260506124601 53 233 3.0 11.0 0.00 0.41 0.03 88 1006.8
20260506123057 53 344 2.0 6.0 0.00 0.41 0.03 87 1006.7
20260506121558 52 12 1.0 6.0 0.00 0.41 0.03 89 1006.5
20260506120058 52 352 3.0 7.0 0.00 0.41 0.03 87 1006.4
20260506114607 53 306 1.0 4.0 0.00 0.41 0.03 87 1006.4
20260506113058 53 343 1.0 5.0 0.00 0.41 0.03 88 1006.2
20260506111558 52 0 0.0 8.0 0.00 0.41 0.03 89 1006.2
20260506110058 52 344 1.0 7.0 0.00 0.41 0.03 90 1006.1
20260506104606 52 224 1.0 10.0 0.00 0.41 0.03 90 1006.0
20260506103059 53 0 0.0 5.0 0.00 0.41 0.03 92 1005.8
20260506101559 52 238 3.0 7.0 0.00 0.41 0.03 91 1005.7
20260506100056 51 241 3.0 8.0 0.00 0.41 0.03 92 1005.6
20260506094559 52 326 0.0 5.0 0.00 0.41 0.03 93 1005.6
20260506093057 51 0 2.0 5.0 0.00 0.41 0.03 93 1005.4
20260506091602 51 262 2.0 8.0 0.00 0.41 0.03 93 1005.4
20260506084605 51 294 2.0 7.0 0.00 0.41 0.03 93 1005.1
20260506083058 51 0 3.0 6.0 0.00 0.41 0.03 94 1005.0
20260506081559 52 0 0.0 2.0 0.00 0.41 0.03 95 1004.9
20260506080106 52 319 0.0 3.0 0.00 0.41 0.03 95 1004.9
20260506073058 51 0 0.0 1.0 0.01 0.41 0.03 95 1005.0
20260506071604 51 0 2.0 5.0 0.00 0.40 0.03 94 1004.9
20260506061556 51 323 1.0 3.0 0.01 0.40 0.02 95 1004.4
20260506050106 51 0 0.0 0.0 0.00 0.38 0.00 96 1004.0
20260506044558 51 0 0.0 0.0 0.00 0.38 0.00 96 1004.0
20260506043100 51 0 0.0 0.0 0.00 0.38 0.00 96 1004.2
20260506041602 51 0 0.0 0.0 0.00 0.38 0.00 96 1004.1
20260506040058 51 0 0.0 1.0 0.00 0.38 0.00 95 1004.3
20260506034615 51 0 0.0 0.0 0.00 0.38 0.00 95 1004.5
20260506033058 51 0 0.0 0.0 0.00 0.38 0.00 95 1004.6
20260506031607 51 0 0.0 2.0 0.00 0.38 0.00 95 1004.5
20260506030100 51 93 0.0 2.0 0.00 0.38 0.00 95 1004.6
20260506024616 51 0 0.0 2.0 0.00 0.38 0.00 95 1004.7
20260506023056 51 0 0.0 1.0 0.00 0.38 0.00 95 1004.6
20260506021559 52 0 0.0 2.0 0.00 0.38 0.00 95 1004.6
20260506020100 52 0 0.0 2.0 0.00 0.38 0.00 95 1004.6
20260506014559 52 0 0.0 2.0 0.00 0.38 0.00 95 1004.8
20260506013110 52 0 0.0 2.0 0.00 0.38 0.00 95 1004.8
20260506011608 52 0 0.0 2.0 0.00 0.38 0.00 95 1004.9
20260506010058 52 0 0.0 3.0 0.00 0.38 0.00 95 1005.0
20260506004557 53 0 0.0 3.0 0.00 0.38 0.00 96 1005.0
20260506003058 53 17 0.0 3.0 0.00 0.38 0.00 96 1005.1
20260506001558 53 330 0.0 2.0 0.00 0.38 0.00 96 1005.2
20260505234557 53 0 0.0 2.0 0.00 0.38 0.00 96 1005.5
20260505233055 53 0 0.0 2.0 0.00 0.38 0.00 96 1005.6
20260505231559 53 188 0.0 1.0 0.00 0.38 0.00 96 1005.6
20260505230107 53 185 0.0 0.0 0.00 0.38 0.00 96 1005.6
20260505224600 53 0 0.0 0.0 0.00 0.38 0.00 95 1005.8